Temp
18 18 17 18 16 15 15 17 19 21 24 25 25 26 27 28 28 25 24 24 24 22 22 21 21 21 21 20 20 20 20 20 20 20 19 19 19 19 19 19 19 19 19 19 18 18 18 18 18
17 18 19 15 14 15 15 18 20 21 23 23 24 26 26 27 23 22 23 23 24 22 23 21 21 21 21 21 21 20 20 20 20 20 19 19 19 19 19 19 19 19 18 18 18 18 17 17 18
17 18 15 14 13 15 16 20 20 22 22 23 24 27 27 26 23 23 25 23 23 22 22 22 21 21 21 21 21 20 20 20 20 20 20 19 19 19 19 19 19 19 18 18 18 17 18 18 19
16 16 15 14 14 16 18 18 20 20 22 22 23 26 27 27 26 26 25 22 23 22 22 21 21 21 21 21 20 20 20 20 20 20 20 20 19 19 19 19 19 19 18 18 18 18 19 19 19
17 13 13 13 14 16 17 18 19 19 20 21 21 22 26 23 26 26 25 23 23 21 22 22 21 21 21 21 21 20 20 20 20 20 20 20 19 19 19 19 19 19 18 18 17 17 19 19 19
13 13 12 13 15 17 17 18 19 20 20 20 21 21 22 25 26 26 24 23 23 23 22 21 21 21 20 20 20 20 20 20 20 19 19 19 19 19 19 19 19 19 18 17 16 17 19 19 19
13 12 12 14 15 16 17 19 19 18 18 19 22 21 21 22 22 25 24 24 22 22 22 21 21 21 21 20 20 20 20 20 20 20 19 19 19 19 19 18 19 19 18 18 18 19 19 19 19
12 12 13 13 14 14 17 17 18 18 18 19 21 20 20 19 23 23 23 23 23 22 21 22 21 21 20 21 20 20 20 20 19 19 19 19 19 19 18 18 18 18 18 19 19 19 19 19 19
14 11 11 13 13 15 16 17 18 18 18 18 19 21 21 22 23 23 22 20 22 23 23 21 20 20 20 20 20 20 20 20 19 19 19 19 19 18 18 18 18 19 18 19 19 19 19 19 19
12 10 12 14 14 14 15 15 16 16 16 16 17 18 20 20 20 20 20 19 20 21 21 22 20 19 20 20 20 19 19 19 19 19 18 19 19 18 18 18 18 18 18 19 19 19 19 19 19
13 11 13 14 14 15 15 15 15 14 14 15 15 16 17 17 18 19 18 19 20 21 20 19 20 21 19 18 19 19 19 19 19 19 19 19 18 18 18 17 17 18 18 18 18 19 19 19 20
11 13 13 14 14 14 14 14 14 14 14 15 15 15 16 16 16 17 18 18 17 18 19 18 18 19 20 19 19 18 18 19 19 18 18 18 18 18 18 17 17 18 18 18 19 19 19 19 20
11 13 13 14 14 14 14 14 14 14 15 15 15 16 15 15 16 17 18 17 16 17 18 18 17 17 19 19 20 18 18 18 18 18 18 18 18 18 18 17 17 18 18 18 19 19 19 19 20
11 12 12 12 13 13 13 13 13 14 14 14 15 15 15 16 16 16 17 17 17 16 17 18 18 17 17 18 18 18 18 17 18 18 18 19 18 18 18 18 17 17 18 19 19 19 19 20 20
11 10 10 11 12 12 13 12 12 14 14 14 15 15 15 15 16 16 16 18 17 17 17 17 17 17 16 16 19 17 17 18 17 18 18 18 18 18 18 18 17 18 18 19 19 19 19 20 20
9 9 8 11 12 12 11 10 13 14 14 13 14 14 14 15 16 16 17 18 18 17 16 17 18 17 15 16 17 17 17 17 17 18 19 19 19 18 18 18 18 18 18 19 19 19 19 20 19
7 5 7 9 12 12 11 10 12 13 13 13 14 14 14 15 15 16 16 18 19 18 17 16 17 18 16 15 16 15 16 17 17 18 19 19 19 19 19 18 19 18 19 19 19 19 19 19 19
4 4 7 8 11 11 10 10 12 13 13 13 13 13 13 14 15 16 17 18 18 18 18 17 18 18 17 15 14 15 15 17 17 18 19 19 19 19 19 19 19 19 19 19 19 19 19 19 19
8 7 7 9 11 10 10 10 11 12 12 12 12 13 13 13 15 16 17 18 18 19 17 17 17 18 16 14 15 15 17 17 17 18 19 19 19 19 19 19 19 19 19 19 19 19 19 19 18
9 7 8 10 11 11 10 10 11 11 11 12 13 12 14 14 15 15 16 17 17 17 17 17 17 16 18 15 16 16 16 17 18 19 20 20 19 20 19 18 19 19 19 19 19 19 18 18 18
8 6 8 9 10 10 9 9 10 11 12 13 13 13 13 14 14 15 15 14 16 16 15 16 16 16 19 15 16 16 17 17 17 18 18 19 19 19 19 19 19 19 19 19 18 18 18 18 18
7 9 9 9 8 7 9 9 11 12 12 12 13 13 12 11 14 13 14 13 14 16 16 16 15 16 17 15 16 16 16 17 18 17 18 18 19 19 19 19 19 19 19 18 18 18 18 18 18
8 9 8 9 9 8 9 9 9 10 11 12 12 12 13 14 13 13 14 14 15 17 15 14 14 15 16 16 15 16 17 18 17 17 18 18 19 19 19 19 19 18 18 18 18 18 18 17 18
10 9 9 9 9 9 11 10 6 10 10 9 10 12 13 13 12 14 15 15 15 16 15 14 14 13 14 15 15 16 17 17 17 17 17 17 18 18 18 18 18 18 18 18 18 17 17 17 17
9 9 8 7 9 8 10 10 10 9 8 10 10 11 12 11 13 14 14 13 15 14 14 14 14 14 14 16 15 16 17 17 17 17 17 16 17 17 18 18 18 18 18 18 17 17 17 17 17
9 9 10 10 11 11 11 11 11 9 8 10 11 11 11 11 12 13 12 12 14 14 14 14 14 14 14 15 14 15 15 17 17 17 17 16 16 17 18 18 18 18 17 17 17 16 16 16 16
9 10 10 11 11 12 11 11 10 9 8 10 11 11 11 11 10 11 12 12 15 14 13 14 14 15 16 15 14 15 15 15 18 16 16 16 16 16 17 17 17 17 17 17 16 16 16 16 15
9 9 10 11 12 12 12 11 10 9 8 10 11 11 11 11 11 11 11 13 15 14 13 13 15 16 14 15 14 14 14 16 16 18 16 15 16 16 16 17 16 16 16 16 15 15 15 15 15
10 11 11 11 11 11 12 11 8 8 7 9 10 11 10 10 11 11 12 15 14 13 13 13 13 13 14 14 14 14 14 14 16 16 16 16 16 16 15 16 16 16 16 15 15 15 15 14 15
12 11 12 10 12 11 11 11 9 9 9 8 8 10 10 10 12 13 14 14 14 13 14 13 13 13 13 13 14 14 14 14 15 14 14 14 15 15 14 15 15 15 15 15 16 15 14 14 15
Height
798 798 799 799 821 824 821 806 788 787 777 763 761 765 765 758 763 786 761 761 763 764 767 776 786 787 793 796 799 801 804 806 809 811 815 819 819 822 824 827 829 831 832 834 836 837 839 840 842
799 798 799 806 828 831 816 793 789 780 768 764 762 760 762 763 754 756 759 760 762 766 765 772 779 787 791 797 799 803 805 808 810 812 814 820 821 822 825 828 830 832 833 836 837 839 840 842 844
799 800 806 815 824 822 811 782 783 776 769 768 768 753 757 761 754 752 755 758 762 766 770 768 778 785 788 795 800 803 806 809 811 813 814 820 823 824 827 829 831 832 834 837 838 840 841 844 846
800 800 806 816 815 801 792 783 777 781 770 766 767 762 752 750 753 751 756 761 763 765 769 772 776 782 789 791 798 803 806 809 813 815 816 819 824 826 828 829 832 835 836 839 841 842 843 845 848
800 805 816 816 808 798 790 785 783 786 782 774 773 777 759 753 752 754 759 759 762 767 770 770 774 780 787 791 795 802 805 810 813 816 818 819 824 827 829 831 834 837 838 840 843 844 845 847 849
807 806 817 815 806 795 791 782 781 781 778 773 774 776 768 755 754 757 759 761 763 764 768 772 776 777 785 791 794 800 805 809 813 817 819 821 823 828 831 833 835 838 840 841 844 846 847 849 851
808 814 812 806 804 798 790 781 784 785 784 779 771 779 769 760 758 758 761 763 764 768 766 771 775 781 782 790 794 799 804 808 812 817 820 822 823 829 833 835 837 840 842 842 845 847 849 851 853
805 810 807 805 805 801 787 784 783 784 782 771 771 780 774 767 764 765 763 764 767 771 770 769 774 780 782 784 793 798 803 807 811 816 821 823 826 828 833 836 838 841 843 844 846 848 851 853 854
800 812 810 806 804 797 788 787 777 777 779 776 773 774 766 765 767 769 769 768 766 771 773 773 772 777 783 783 789 797 802 806 810 815 819 823 826 829 833 836 838 841 844 846 848 850 852 854 856
804 815 806 800 797 796 791 790 788 784 781 779 772 770 767 768 770 770 770 772 769 769 772 774 775 777 781 782 786 793 799 805 808 812 817 822 825 830 832 836 839 842 845 847 849 851 853 856 858
798 804 801 797 794 792 790 788 786 788 786 784 783 774 768 768 772 773 772 769 769 767 769 774 776 776 779 782 786 787 798 801 806 811 814 819 824 830 833 836 839 842 845 848 850 852 854 856 858
803 797 796 794 791 790 789 786 785 784 782 781 779 778 769 767 769 771 771 771 770 766 765 770 772 776 779 780 785 786 794 799 802 809 812 817 822 827 831 834 838 842 845 848 851 852 854 856 858
799 795 791 791 790 788 784 783 781 777 776 776 775 772 772 763 766 768 767 767 769 766 763 766 771 773 775 780 780 785 790 797 800 806 811 814 820 824 829 834 837 841 845 848 850 853 854 856 857
796 795 791 788 788 786 786 780 779 775 775 772 771 769 765 762 759 764 766 763 763 764 764 764 766 770 770 776 781 785 789 793 800 803 807 812 817 822 826 832 836 840 844 847 850 852 853 855 857
797 800 793 790 787 786 784 774 773 771 768 766 765 764 762 758 752 756 760 759 757 759 760 763 764 768 769 773 778 779 790 791 796 800 805 808 815 820 824 830 835 838 842 846 849 851 853 855 856
804 801 803 785 784 782 785 771 767 763 761 759 757 756 754 751 748 745 749 752 751 752 755 758 760 766 772 772 774 777 783 788 791 797 800 805 810 817 821 827 833 837 840 843 847 849 850 853 855
808 821 805 789 779 778 780 766 758 757 756 753 748 746 743 743 742 738 739 743 745 745 747 751 752 756 765 769 771 778 769 782 787 792 797 800 805 813 818 824 829 835 837 841 844 847 849 851 854
828 826 802 790 778 776 777 765 750 750 748 745 741 737 735 735 731 731 730 734 736 737 740 742 744 747 756 764 765 765 765 781 782 785 791 798 801 808 815 820 826 830 835 838 842 845 848 850 853
799 801 797 770 774 770 766 758 744 740 739 734 731 728 727 725 721 722 722 723 726 728 733 735 739 741 749 758 757 762 755 766 776 779 787 793 799 804 810 816 821 826 832 835 840 843 846 848 851
788 794 784 767 759 764 755 743 738 728 724 722 719 719 715 712 712 714 714 717 719 721 726 726 734 735 738 747 748 750 756 763 768 776 782 789 795 801 807 812 816 821 828 833 837 841 844 846 848
786 795 778 774 754 755 753 739 726 712 707 703 705 706 706 706 704 703 706 708 711 714 718 720 726 726 726 737 742 747 754 762 766 772 779 785 791 797 803 808 813 819 825 828 833 837 841 842 845
791 772 771 769 775 774 754 744 717 705 698 695 696 693 699 700 698 699 698 702 704 706 714 715 718 720 723 734 733 736 744 754 761 767 775 782 787 793 800 806 811 817 821 826 830 834 837 838 841
779 769 771 768 765 764 750 752 726 713 702 692 691 689 689 690 691 693 692 693 698 703 707 706 710 713 717 730 729 736 747 749 757 765 773 777 783 789 796 803 809 814 819 823 826 829 833 835 839
763 765 760 758 760 755 731 739 748 717 714 708 698 690 687 688 689 687 687 690 694 698 703 706 711 714 719 719 726 735 742 750 758 762 768 774 780 786 792 799 806 811 816 819 822 826 830 832 834
766 764 772 773 761 761 729 728 721 719 720 705 701 691 688 686 684 682 685 688 691 694 701 700 705 708 716 717 729 733 740 748 753 759 765 770 776 783 789 796 804 809 812 816 820 823 827 829 832
765 765 754 749 733 728 728 720 716 722 717 704 694 690 687 686 682 682 685 686 689 692 695 695 702 708 713 711 725 734 742 747 751 757 761 766 773 779 785 794 800 804 809 814 817 820 824 827 830
756 750 753 743 733 723 728 723 726 720 715 702 691 690 688 685 684 682 683 685 686 689 691 693 702 707 711 711 717 728 732 743 748 754 759 765 771 777 783 791 796 801 805 809 814 817 821 825 828
758 758 747 740 730 720 725 725 735 728 724 705 695 692 687 685 684 681 680 681 684 686 693 699 699 704 709 710 718 725 728 739 747 749 757 763 766 772 781 788 793 797 802 805 810 815 819 820 824
755 748 743 741 735 735 728 736 746 738 732 719 706 695 689 682 679 674 673 676 681 684 692 696 701 708 703 713 717 721 723 732 743 747 754 760 762 767 776 782 789 793 798 802 805 810 814 815 819
746 745 738 754 739 740 738 743 747 741 733 726 715 702 692 676 671 670 672 671 679 691 697 701 705 706 711 715 722 723 729 735 743 747 753 756 760 769 775 780 786 790 794 797 800 805 809 808 815
Wind_Speed
3 5 12 4 3 3 4 6 5 8 4 5 7 3 6 3 3 4 5 8 29 36 38 33 26 27 25 26 26 25 25 24 24 24 22 20 22 22 21 20 20 21 18 22 21 21 21 22 22
4 6 1 1 4 2 5 6 12 11 7 10 8 5 4 2 3 6 11 23 32 34 38 36 31 28 26 26 26 25 24 25 25 25 24 21 23 23 22 21 22 19 21 24 24 22 21 22 24
8 8 3 4 4 7 5 5 9 6 10 6 6 3 3 0 4 12 12 33 32 31 37 38 32 28 29 27 26 26 24 25 26 24 26 23 23 24 23 23 22 21 23 23 23 21 23 25 24
5 5 3 2 9 7 6 8 3 9 9 7 7 3 2 6 9 11 26 29 29 31 35 35 33 30 28 29 28 26 26 25 25 25 26 25 23 24 24 23 23 23 25 23 19 20 24 23 22
2 2 2 4 10 6 7 8 7 9 7 9 5 8 3 6 15 16 20 32 32 30 32 32 34 32 29 28 29 27 26 25 25 25 25 25 25 23 25 24 23 22 25 23 19 18 22 23 23
3 2 2 7 8 6 7 11 5 5 5 10 9 6 8 15 10 12 14 32 29 31 30 30 32 34 30 28 28 28 27 26 25 26 25 24 26 25 25 25 22 21 21 20 18 17 19 23 22
4 1 4 4 5 7 6 6 5 5 6 7 2 5 6 10 10 8 3 19 26 28 32 30 32 31 33 28 27 28 27 27 27 26 26 26 26 24 24 24 21 20 19 19 18 18 20 23 22
3 2 3 4 5 7 6 10 7 6 10 7 3 2 6 1 19 17 5 12 19 22 28 31 33 32 32 32 27 26 27 27 27 26 28 27 24 26 24 23 20 19 19 19 19 20 21 22 22
3 2 3 5 7 8 8 12 10 5 2 7 2 3 11 12 10 9 14 9 15 18 22 30 34 33 33 33 31 27 28 29 28 28 29 28 26 27 24 23 21 20 19 20 20 20 20 21 22
4 3 5 6 7 8 9 8 8 8 12 7 15 14 23 20 8 1 3 4 7 19 20 25 32 34 33 31 33 31 29 30 31 32 32 30 28 28 26 23 21 21 21 20 20 20 21 22 19
4 7 7 13 14 13 13 8 5 8 10 7 9 12 19 18 15 2 5 7 5 5 19 22 25 32 34 29 33 35 32 34 34 35 36 32 30 28 26 25 23 22 22 21 21 21 20 20 16
7 7 8 12 13 13 15 7 8 9 10 8 13 10 17 17 9 8 5 10 6 2 8 14 14 23 31 29 33 30 35 36 38 38 35 35 33 31 29 28 25 25 24 23 21 20 18 15 10
7 7 9 10 9 9 10 13 16 18 14 12 17 20 18 21 12 12 7 5 3 0 5 11 11 15 32 29 34 32 36 37 40 39 35 38 34 34 32 30 27 25 24 23 22 16 12 10 10
5 11 11 9 11 11 14 17 14 11 9 11 16 20 21 24 18 19 17 13 9 4 1 7 12 15 19 31 29 32 36 37 41 40 37 40 37 36 35 32 28 25 22 22 19 15 13 13 11
7 8 12 10 8 10 13 23 21 18 18 21 22 20 20 20 33 22 20 24 18 13 7 5 8 11 17 27 25 24 35 36 43 39 37 40 36 38 36 31 29 28 23 22 17 15 16 12 12
6 5 5 4 7 11 10 25 15 17 19 22 22 20 21 24 27 31 28 27 23 23 21 12 7 11 16 28 30 41 39 38 41 35 38 43 37 38 37 32 29 28 26 22 19 19 17 15 10
3 4 9 12 8 11 8 21 7 10 14 14 19 21 20 21 22 35 29 27 31 31 29 21 16 15 16 28 34 38 32 41 42 35 38 44 40 41 36 33 32 29 26 26 23 20 18 15 12
5 5 8 12 2 12 16 23 22 17 16 17 16 15 16 14 23 29 33 30 36 30 30 29 23 21 16 32 33 31 34 36 38 38 39 42 41 43 40 36 33 28 28 26 24 22 18 14 13
9 13 17 24 9 14 18 20 22 17 13 18 18 18 15 15 18 30 30 28 27 26 30 29 24 18 21 30 32 33 35 39 37 39 45 39 38 38 40 40 38 34 31 28 25 21 18 15 13
11 9 18 19 12 9 16 26 22 23 21 21 18 14 18 17 17 18 22 28 28 28 32 29 29 23 15 32 38 35 38 34 37 43 46 44 36 36 41 40 39 36 31 27 25 25 19 14 14
10 6 15 17 25 18 19 18 11 13 17 20 20 18 17 16 14 17 15 24 32 29 27 31 33 26 23 31 36 34 35 32 32 35 36 43 39 40 39 39 37 35 33 31 28 24 23 14 14
9 6 12 15 10 5 6 9 10 9 12 9 15 11 7 7 8 7 11 12 23 26 31 32 34 30 27 27 27 35 32 32 32 34 38 39 39 42 38 37 35 34 33 30 28 25 23 20 18
8 3 10 13 12 11 7 6 6 5 7 4 7 9 11 13 11 10 11 17 23 29 26 25 28 27 21 37 26 34 30 31 33 33 35 38 42 41 37 37 35 35 33 31 29 27 24 19 19
10 12 15 14 4 5 5 8 5 5 11 13 8 7 12 13 9 9 12 16 22 23 22 25 28 28 27 11 33 36 32 30 29 31 34 34 40 40 37 38 38 36 34 32 31 27 24 21 19
1 4 4 3 1 5 4 5 5 10 15 13 13 12 2 3 5 6 7 7 13 18 23 25 26 26 28 24 29 32 32 32 33 33 34 31 32 34 37 38 40 36 33 33 29 26 23 20 20
4 2 2 3 2 3 2 5 3 10 14 12 13 4 1 3 3 5 7 6 12 20 22 25 24 21 21 20 15 15 28 36 36 35 36 34 35 38 42 42 40 37 34 30 28 25 24 19 14
3 3 2 4 4 1 4 4 2 17 15 16 6 6 4 5 5 5 5 8 15 23 22 30 29 22 16 22 23 23 23 41 38 37 36 37 36 37 42 42 39 34 33 31 27 26 21 16 11
5 6 2 3 4 2 2 4 6 16 16 17 12 9 8 7 5 5 6 11 21 21 23 26 30 26 28 28 28 34 24 32 35 41 37 36 41 42 41 37 34 34 32 31 29 22 18 16 11
3 4 3 2 1 2 3 4 9 11 12 18 17 15 13 9 6 6 5 16 23 20 20 23 15 19 29 28 23 23 21 28 32 27 33 36 40 41 39 37 37 36 33 30 26 21 17 15 13
3 4 3 3 6 3 2 3 12 12 14 16 17 15 12 8 9 5 9 15 25 19 16 15 16 20 25 28 27 28 22 21 19 21 24 26 31 30 35 37 37 36 33 30 23 19 17 16 17
Wind_Direction
278 316 310 323 76 76 243 253 250 287 297 216 258 282 269 204 170 240 108 215 166 165 166 169 170 161 167 165 165 159 155 157 154 151 146 145 141 137 132 133 129 129 128 124 119 115 110 109 106
313 326 221 56 112 159 256 210 270 250 257 310 286 282 8 288 131 150 133 160 165 166 166 169 169 166 166 171 169 163 162 161 160 157 149 148 144 141 135 133 134 129 123 125 122 120 118 116 110
319 310 97 146 179 209 225 212 225 310 297 311 301 194 148 69 3 146 154 165 161 165 171 168 169 167 169 173 174 170 168 166 165 160 154 152 149 145 142 141 143 132 128 129 127 124 124 122 115
312 1 6 172 226 258 251 286 317 350 323 2 3 266 24 62 166 176 155 160 165 166 175 171 171 170 173 173 176 176 174 171 169 165 159 156 155 149 148 153 148 137 129 124 127 134 129 127 121
254 64 219 217 247 274 288 275 295 299 287 298 21 303 292 62 114 137 144 168 170 164 175 172 174 173 175 178 177 181 178 175 173 169 165 159 158 155 154 155 152 143 139 142 129 128 128 126 124
336 127 211 227 251 268 266 277 293 287 283 297 336 349 308 110 107 148 153 171 172 170 171 173 177 174 177 180 180 181 181 179 177 172 168 161 161 162 161 157 155 154 150 142 135 135 132 132 127
148 358 219 233 250 264 253 291 295 323 316 302 302 335 276 2 42 150 150 177 167 179 171 174 179 182 179 179 180 183 183 181 180 177 168 164 167 165 165 160 155 156 153 146 143 140 137 137 129
129 165 230 224 249 277 288 322 331 326 299 307 86 268 284 127 21 356 238 180 188 193 183 179 181 185 182 179 181 183 185 185 181 177 171 172 169 164 165 159 157 156 155 148 146 142 138 138 130
45 245 236 243 240 270 296 298 308 302 292 323 313 258 269 314 326 328 347 352 189 210 211 189 182 184 188 180 179 187 190 187 181 176 175 173 169 165 165 163 161 159 155 150 146 141 137 136 131
159 200 238 249 295 300 300 310 320 332 321 317 316 328 323 347 18 84 307 349 343 224 216 209 191 187 187 183 182 185 189 186 182 178 175 174 170 168 166 162 161 159 156 151 145 140 135 134 131
207 234 268 283 290 288 293 304 315 310 292 289 288 309 310 323 329 357 299 272 260 306 226 213 211 202 190 181 185 180 190 187 182 179 176 177 169 167 164 159 160 160 159 153 147 141 138 134 128
258 256 240 257 265 278 284 284 280 273 270 274 291 296 300 304 307 288 266 282 297 261 230 227 221 211 197 186 185 174 188 188 181 179 176 174 169 169 168 166 164 164 162 155 151 146 142 144 132
264 257 265 280 280 270 285 278 275 266 273 278 286 288 283 290 287 280 253 190 279 96 228 229 247 254 193 193 187 180 183 185 183 178 179 174 174 173 172 170 170 168 164 161 156 154 161 161 160
299 306 294 294 292 284 287 284 279 274 283 269 262 268 277 278 276 277 251 197 192 186 272 262 266 256 200 193 187 183 185 184 183 177 175 178 179 177 174 174 174 171 169 168 163 161 160 165 158
322 311 311 285 277 281 285 273 264 267 262 258 259 261 267 267 277 258 258 241 213 219 190 204 250 239 282 234 225 194 193 185 184 176 177 181 181 178 177 176 179 173 166 168 172 181 174 176 171
308 301 264 238 255 260 243 267 257 257 251 252 251 251 251 255 262 267 251 251 229 221 223 214 253 244 283 249 232 220 191 188 183 177 178 182 182 182 178 178 177 177 179 178 181 175 177 182 174
254 257 267 289 231 268 257 285 257 288 279 273 255 248 250 251 250 258 256 247 247 224 224 214 235 256 271 249 227 222 215 187 182 181 181 182 183 185 181 179 181 188 188 181 184 180 182 181 185
232 269 270 274 235 285 268 273 282 275 271 266 259 255 251 255 248 242 251 243 243 222 226 228 229 245 259 229 213 217 229 186 178 179 176 183 180 185 184 182 188 190 181 180 184 184 183 180 178
254 262 261 274 262 274 277 271 275 276 269 262 253 255 246 243 249 240 236 240 215 220 218 214 212 229 214 214 208 214 181 176 178 177 177 169 177 182 184 182 191 185 182 183 187 183 183 188 189
255 267 279 285 276 285 287 280 273 269 257 249 252 245 250 249 253 234 220 214 207 210 215 209 215 215 218 213 202 187 181 171 172 178 178 177 175 181 183 183 182 180 182 182 185 186 178 165 165
252 231 277 274 299 289 275 282 268 272 259 249 240 247 240 230 239 226 209 197 204 207 209 208 215 218 215 210 183 168 169 168 160 174 178 186 185 182 183 184 178 182 185 186 188 188 192 172 177
288 239 257 276 293 274 51 295 303 286 283 222 236 222 214 247 231 231 191 195 206 212 224 220 206 207 197 220 185 160 160 166 170 166 172 178 185 179 181 183 182 187 188 187 186 186 189 180 171
243 241 276 270 266 289 254 250 278 1 323 290 245 187 202 235 224 206 211 207 205 215 212 214 211 195 184 209 184 167 172 169 169 169 174 177 179 179 181 184 187 189 188 187 185 185 187 180 179
288 290 270 258 231 252 223 198 290 337 304 297 299 290 207 223 222 208 205 194 198 214 204 197 194 183 195 179 181 174 171 170 168 172 173 171 179 179 183 186 190 189 189 186 189 189 190 187 183
112 270 306 354 195 236 307 203 276 305 312 283 283 289 318 305 234 180 174 177 196 191 189 173 178 173 184 189 203 177 178 174 174 173 176 173 173 179 184 188 190 189 189 190 189 188 187 184 177
298 191 266 284 252 304 262 298 323 333 320 331 282 276 64 280 256 216 196 198 196 187 169 159 160 161 180 156 224 204 227 192 177 178 175 174 176 182 188 192 191 191 192 190 189 187 182 176 180
317 250 251 254 230 310 285 297 236 342 354 332 65 43 346 331 303 268 226 194 194 179 152 147 152 149 169 185 214 213 210 205 191 176 175 177 176 182 187 192 191 190 190 189 188 180 176 180 180
235 311 310 252 336 347 321 344 341 345 343 358 16 7 348 330 318 263 238 184 188 157 143 144 134 140 145 157 175 209 214 202 200 185 174 175 179 185 188 189 189 187 189 185 182 182 182 180 183
313 310 253 255 327 311 332 13 336 341 348 355 3 359 341 307 260 222 202 176 161 137 144 147 150 143 126 121 139 157 134 167 187 174 184 197 188 191 189 189 189 189 188 184 181 186 183 177 173
235 267 297 66 336 340 346 51 2 2 1 356 356 348 347 15 47 183 160 147 120 120 123 130 145 133 135 140 138 128 128 129 152 163 161 176 179 188 187 188 190 187 186 184 187 192 190 180 185